Location: �quirre
(50.4736°N, 2.2351°E)
Time: 06:12:46
(UTC+00:00)

Meteor 1-29 - Pass Details

Date: 07 August 2020
Orbit: 438 x 461 km, 97.7° (Epoch: 23 September)

Event Time Altitude Azimuth Distance (km) Brightness Sun altitude
Rises 00:46:45 0° 16° (NNE) 2,503 8.2 -22.3°
Reaches altitude 10° 00:48:49 10° 19° (NNE) 1,623 6.8 -22.2°
Enters shadow 00:51:59 61° 71° (ENE) 532 3.3 -22.1°
